Location: Izdebno
(52.6670°N, 16.2170°E)
Time: 12:23:35
(UTC+02:00)

A-11 Canister half - Pass Details

Date: 27 February 2024
Orbit: 1525 x 1683 km, 47.3° (Epoch: 24 April)

Event Time Altitude Azimuth Distance (km) Brightness Sun altitude
Rises 22:41:41 0° 259° (W) 4,740 11.8 -42.3°
Reaches altitude 10° 22:44:48 10° 256° (WSW) 3,739 11.1 -42.5°
Enters shadow 22:47:24 21° 253° (WSW) 2,942 10.5 -42.7°
